| time (UTC) | temp F | wind direction | speed knots | gust knots | rain 1hr in | rain 24hr in | rain mn in | humidity % | barometer mb |
| 20260503210915 | 65 | 203 | 0.9 | 1.7 | 0.00 | 0.00 | 0.00 | 58 | 1013.3 |
| 20260503205935 | 65 | 248 | 0.9 | 2.6 | 0.00 | 0.00 | 0.00 | 58 | 1013.3 |
| 20260503204915 | 65 | 203 | 1.7 | 3.5 | 0.00 | 0.00 | 0.00 | 56 | 1013.2 |
| 20260503203915 | 66 | 225 | 0.9 | 1.7 | 0.00 | 0.00 | 0.00 | 56 | 1013.3 |
| 20260503202915 | 65 | 270 | 0.9 | 2.6 | 0.00 | 0.00 | 0.00 | 57 | 1013.6 |
| 20260503201915 | 65 | 248 | 0.9 | 3.5 | 0.00 | 0.00 | 0.00 | 56 | 1013.5 |
| 20260503200915 | 65 | 180 | 0.9 | 1.7 | 0.00 | 0.00 | 0.00 | 58 | 1013.5 |
| 20260503195915 | 65 | 225 | 0.9 | 2.6 | 0.00 | 0.00 | 0.00 | 57 | 1013.6 |
| 20260503194915 | 65 | 270 | 3.5 | 6.1 | 0.00 | 0.00 | 0.00 | 56 | 1013.4 |
| 20260503193915 | 65 | 225 | 2.6 | 4.3 | 0.00 | 0.00 | 0.00 | 57 | 1013.5 |
| 20260503192916 | 65 | 203 | 1.7 | 4.3 | 0.00 | 0.00 | 0.00 | 55 | 1013.5 |
| 20260503191915 | 65 | 135 | 2.6 | 6.1 | 0.00 | 0.00 | 0.00 | 54 | 1013.6 |
| 20260503190915 | 65 | 270 | 0.9 | 1.7 | 0.00 | 0.00 | 0.00 | 57 | 1013.7 |
| 20260503185915 | 64 | 270 | 0.9 | 1.7 | 0.00 | 0.00 | 0.00 | 59 | 1013.8 |
| 20260503184915 | 64 | 0.0 | 0.0 | 0.00 | 0.00 | 0.00 | 60 | 1013.8 | |
| 20260503183915 | 63 | 270 | 0.9 | 1.7 | 0.00 | 0.00 | 0.00 | 61 | 1013.8 |
| 20260503182935 | 62 | 203 | 0.9 | 2.6 | 0.00 | 0.00 | 0.00 | 63 | 1013.9 |
| 20260503181915 | 62 | 180 | 1.7 | 3.5 | 0.00 | 0.00 | 0.00 | 63 | 1013.9 |
| 20260503180915 | 62 | 0.0 | 1.7 | 0.00 | 0.00 | 0.00 | 66 | 1013.8 | |
| 20260503175915 | 61 | 203 | 0.9 | 1.7 | 0.00 | 0.00 | 0.00 | 68 | 1013.9 |
| 20260503174915 | 60 | 180 | 1.7 | 3.5 | 0.00 | 0.00 | 0.00 | 70 | 1013.9 |
| 20260503173915 | 60 | 203 | 0.9 | 2.6 | 0.00 | 0.00 | 0.00 | 70 | 1013.9 |
| 20260503172915 | 59 | 248 | 1.7 | 3.5 | 0.00 | 0.00 | 0.00 | 69 | 1013.9 |
| 20260503171915 | 60 | 248 | 0.9 | 1.7 | 0.00 | 0.00 | 0.00 | 68 | 1013.9 |
| 20260503170915 | 61 | 270 | 0.9 | 2.6 | 0.00 | 0.00 | 0.00 | 68 | 1013.9 |
| 20260503150917 | 57 | 180 | 0.9 | 2.6 | 0.00 | 0.00 | 0.00 | 74 | 1013.3 |
| 20260503130916 | 55 | 270 | 0.9 | 1.7 | 0.00 | 0.00 | 0.00 | 78 | 1012.0 |
| 20260503080916 | 56 | 0.0 | 0.9 | 0.00 | 0.00 | 0.00 | 77 | 1012.6 | |
| 20260503072936 | 56 | 0.0 | 0.0 | 0.00 | 0.00 | 0.00 | 77 | 1012.6 | |
| 20260503071916 | 56 | 0.0 | 0.0 | 0.00 | 0.00 | 0.00 | 77 | 1012.7 | |
| 20260503070916 | 56 | 0.0 | 0.9 | 0.00 | 0.00 | 0.00 | 76 | 1012.6 | |
| 20260503054916 | 57 | 0.0 | 0.9 | 0.00 | 0.00 | 0.00 | 75 | 1012.8 | |
| 20260503053916 | 57 | 293 | 0.9 | 1.7 | 0.00 | 0.00 | 0.00 | 75 | 1012.9 |
| 20260503052916 | 57 | 315 | 0.9 | 1.7 | 0.00 | 0.00 | 0.00 | 75 | 1012.8 |
| 20260503051916 | 57 | 0.0 | 0.9 | 0.00 | 0.00 | 0.00 | 75 | 1013.0 | |
| 20260503050916 | 57 | 315 | 0.9 | 2.6 | 0.00 | 0.00 | 0.00 | 74 | 1012.9 |
| 20260503045916 | 57 | 315 | 0.9 | 1.7 | 0.00 | 0.00 | 0.00 | 74 | 1012.8 |
| 20260503044916 | 57 | 0.0 | 0.9 | 0.00 | 0.00 | 0.00 | 74 | 1012.7 | |
| 20260503043936 | 57 | 315 | 1.7 | 6.1 | 0.00 | 0.00 | 0.00 | 74 | 1012.6 |
| 20260503042916 | 57 | 0.0 | 0.9 | 0.00 | 0.00 | 0.00 | 74 | 1012.7 | |
| 20260503041916 | 57 | 338 | 0.9 | 3.5 | 0.00 | 0.00 | 0.00 | 74 | 1012.6 |
| 20260503040917 | 57 | 0.0 | 0.9 | 0.00 | 0.00 | 0.00 | 74 | 1012.5 | |
| 20260503035921 | 58 | 23 | 0.9 | 2.6 | 0.00 | 0.00 | 0.00 | 73 | 1012.4 |
| 20260503034936 | 58 | 0 | 0.9 | 1.7 | 0.00 | 0.00 | 0.00 | 73 | 1012.3 |
| 20260503033916 | 58 | 0 | 0.9 | 2.6 | 0.00 | 0.00 | 0.00 | 72 | 1012.3 |
| 20260503032916 | 58 | 0 | 1.7 | 3.5 | 0.00 | 0.00 | 0.00 | 71 | 1012.1 |
| 20260503031916 | 58 | 338 | 2.6 | 4.3 | 0.00 | 0.00 | 0.00 | 71 | 1012.1 |
| 20260503030916 | 59 | 315 | 0.9 | 1.7 | 0.00 | 0.00 | 0.00 | 70 | 1011.9 |
| 20260503025916 | 59 | 0 | 1.7 | 2.6 | 0.00 | 0.00 | 0.00 | 70 | 1011.9 |
| 20260503024936 | 59 | 45 | 3.5 | 7.0 | 0.00 | 0.00 | 0.00 | 69 | 1011.8 |
| 20260503023916 | 60 | 23 | 3.5 | 6.1 | 0.00 | 0.00 | 0.00 | 69 | 1011.8 |
| 20260503022916 | 60 | 0 | 3.5 | 5.2 | 0.00 | 0.00 | 0.00 | 68 | 1011.6 |
| 20260503021916 | 61 | 23 | 3.5 | 6.1 | 0.00 | 0.00 | 0.00 | 68 | 1011.5 |
| 20260503020936 | 61 | 45 | 0.9 | 2.6 | 0.00 | 0.00 | 0.00 | 68 | 1011.6 |
| 20260503015936 | 62 | 315 | 2.6 | 5.2 | 0.00 | 0.00 | 0.00 | 68 | 1011.5 |
| 20260503014916 | 62 | 23 | 1.7 | 3.5 | 0.00 | 0.00 | 0.00 | 68 | 1011.6 |
| 20260503013916 | 62 | 23 | 0.9 | 3.5 | 0.00 | 0.00 | 0.00 | 68 | 1011.5 |
| 20260503012916 | 63 | 23 | 3.5 | 7.8 | 0.00 | 0.00 | 0.00 | 67 | 1011.6 |
| 20260503011916 | 63 | 0 | 1.7 | 5.2 | 0.00 | 0.00 | 0.00 | 66 | 1011.5 |
| 20260503010916 | 64 | 0 | 2.6 | 4.3 | 0.00 | 0.00 | 0.00 | 66 | 1011.6 |
| 20260503005915 | 64 | 0 | 2.6 | 4.3 | 0.00 | 0.00 | 0.00 | 65 | 1011.5 |
| 20260503004936 | 65 | 23 | 4.3 | 6.1 | 0.00 | 0.00 | 0.00 | 65 | 1011.4 |
| 20260503003916 | 65 | 23 | 1.7 | 4.3 | 0.00 | 0.00 | 0.00 | 64 | 1011.5 |
| 20260503002915 | 65 | 23 | 2.6 | 6.1 | 0.00 | 0.00 | 0.00 | 64 | 1011.6 |
| 20260503001935 | 66 | 23 | 3.5 | 7.8 | 0.00 | 0.00 | 0.00 | 62 | 1011.6 |
| 20260503000915 | 67 | 338 | 1.7 | 4.3 | 0.00 | 0.00 | 0.00 | 61 | 1011.6 |
| 20260502235916 | 68 | 23 | 3.5 | 7.0 | 0.00 | 0.00 | 0.00 | 59 | 1011.7 |
| 20260502234916 | 68 | 0 | 3.5 | 8.7 | 0.00 | 0.00 | 0.00 | 59 | 1011.7 |
| 20260502233916 | 68 | 315 | 1.7 | 4.3 | 0.00 | 0.00 | 0.00 | 61 | 1011.6 |
| 20260502232915 | 68 | 0 | 1.7 | 4.3 | 0.00 | 0.00 | 0.00 | 60 | 1011.9 |
| 20260502231915 | 69 | 23 | 3.5 | 5.2 | 0.00 | 0.00 | 0.00 | 60 | 1011.9 |
| 20260502230916 | 69 | 338 | 1.7 | 3.5 | 0.00 | 0.00 | 0.00 | 59 | 1011.9 |
| 20260502225916 | 69 | 0 | 1.7 | 3.5 | 0.00 | 0.00 | 0.00 | 60 | 1012.2 |
| 20260502224915 | 69 | 0 | 2.6 | 6.1 | 0.00 | 0.00 | 0.00 | 60 | 1012.2 |
| 20260502223916 | 69 | 23 | 2.6 | 7.0 | 0.00 | 0.00 | 0.00 | 59 | 1012.4 |
| 20260502222915 | 70 | 45 | 3.5 | 6.1 | 0.00 | 0.00 | 0.00 | 58 | 1012.6 |
| 20260502221915 | 70 | 23 | 3.5 | 6.1 | 0.00 | 0.00 | 0.00 | 58 | 1012.8 |
| 20260502220918 | 71 | 23 | 1.7 | 2.6 | 0.00 | 0.00 | 0.00 | 57 | 1013.0 |
| 20260502215917 | 71 | 0 | 2.6 | 5.2 | 0.00 | 0.00 | 0.00 | 59 | 1013.1 |
| 20260502214915 | 70 | 23 | 3.5 | 6.1 | 0.00 | 0.00 | 0.00 | 59 | 1013.1 |
| 20260502213915 | 70 | 23 | 2.6 | 7.8 | 0.00 | 0.00 | 0.00 | 61 | 1013.2 |
| 20260502212915 | 69 | 315 | 2.6 | 5.2 | 0.00 | 0.00 | 0.00 | 61 | 1013.3 |
| 20260502211915 | 69 | 45 | 1.7 | 3.5 | 0.00 | 0.00 | 0.00 | 62 | 1013.4 |